Weather in Ryabovo

Russia / Saint-Petersburg and Leningrad Oblast     59°25′12″N   31°07′45″E
temp.,
°C
wind,
m/s
gust,
m/s
humid.,
%
clouds,
%
prec.,
mm/h
press.,
hPa
HPBL,
m
22 april, thu
thu2200:00+1ssw1497100 0.0 1004227
03:00+1s1497100 0.0 1004123
06:00+2se2497100 0.1 1004122
09:00+6s358439 0.3 1004443
12:00+11sw46515 0.0 10051107
15:00+14ssw474198 0.0 10062367
18:00+12ssw375395 0.0 10061555
21:00+8sse227996 0.1 100640
23 april, fri
fri2300:00+7s41094100 4.1 1004943
03:00+5ssw3890100 4.8 1005346
06:00+4s3793100 0.0 1005321
09:00+6ssw477633 0.0 1005821
12:00+8ssw6957100 0.1 10061932
15:00+7ssw695481 0.2 10071746
18:00+7ssw59585 0.0 10071584
21:00+4s38765 0.0 1008265
24 april, sat
sat2400:00+2s39885 0.0 1008291
03:000s269722 0.0 1008187
06:00−1s259643 0.0 1008171
09:00+3s237497 0.0 1007798
12:00+6sw2350100 0.0 10061482
15:00+7wsw3345100 0.1 10061634
18:00+7w224571 0.1 10051447
21:00+1nne248423 0.1 100673
25 april, sun
sun2500:000nne118989 0.0 100516
03:000n129298 0.3 100530
06:00−1n118955 0.1 100437
09:00+4nw106953 0.1 1004621
12:00+5sw1164100 0.2 10051099
15:00+5sse226486 0.6 1006859
18:00+6s226011 0.4 10061005
21:00+2ssw11835 0.8 100710
26 april, mon
mon2600:000wsw22865 0.0 100812
03:00−1wsw22898 0.0 100822
06:000wsw239278 0.0 100874
09:00+4w2471100 0.0 1009550
12:00+7w3351100 0.1 10091696
15:00+7w4556100 0.8 10091344
18:00+6w3564100 0.4 10091251
21:00+3wsw2680100 0.5 1009260